This is the latest recevied weather packets stored in our database for station/object N9VPV. If no packets are shown the sender has not sent any weather packets the latest 10 day(s).
| Time | Temp. | Humidity | Pressure | Rain* | Wind** | Luminosity | Snow |
|---|---|---|---|---|---|---|---|
| 1777545628 | 2.78° C | 82% | 1016.5 hPa | 0 mm | - | 0 W/m² | - |
| 1777544713 | 2.78° C | 83% | 1016.5 hPa | 0 mm | - | 0 W/m² | - |
| 1777543805 | 2.78° C | 82% | 1016.5 hPa | 0 mm | - | 0 W/m² | - |
| 1777542900 | 2.78° C | 81% | 1016.6 hPa | 0 mm | - | 0 W/m² | - |
| 1777542000 | 2.78° C | 80% | 1016.7 hPa | 0 mm | - | 0 W/m² | - |
| 1777541093 | 3.33° C | 80% | 1016.8 hPa | 0 mm | - | 0 W/m² | - |
| 1777540185 | 3.33° C | 80% | 1016.9 hPa | 0 mm | - | 0 W/m² | - |
| 1777539272 | 3.33° C | 80% | 1016.9 hPa | 0 mm | - | 0 W/m² | - |
| 1777538370 | 3.33° C | 79% | 1016.9 hPa | 0 mm | - | 0 W/m² | - |
| 1777537464 | 3.89° C | 78% | 1016.7 hPa | 0 mm | - | 0 W/m² | - |
| 1777536560 | 3.33° C | 77% | 1016.8 hPa | 0 mm | - | 0 W/m² | - |
| 1777535651 | 3.33° C | 77% | 1016.7 hPa | 0 mm | - | 0 W/m² | - |
| 1777534743 | 3.89° C | 77% | 1016.8 hPa | 0 mm | - | 0 W/m² | - |
| 1777533840 | 3.89° C | 77% | 1016.9 hPa | 0 mm | - | 0 W/m² | - |
| 1777532931 | 3.89° C | 76% | 1017 hPa | 0 mm | - | 0 W/m² | - |
| 1777532026 | 3.89° C | 75% | 1017.1 hPa | 0 mm | - | 0 W/m² | - |
| 1777531127 | 4.44° C | 75% | 1017.1 hPa | 0 mm | - | 0 W/m² | - |
| 1777530185 | 4.44° C | 74% | 1017.3 hPa | 0 mm | - | 0 W/m² | - |
| 1777529281 | 4.44° C | 73% | 1017.3 hPa | 0 mm | - | 0 W/m² | - |
| 1777528380 | 5° C | 72% | 1017.5 hPa | 0 mm | - | 0 W/m² | - |
| 1777527475 | 5° C | 69% | 1017.4 hPa | 0 mm | - | 0 W/m² | - |
| 1777526543 | 5° C | 70% | 1017.5 hPa | 0 mm | - | 0 W/m² | - |
| 1777525638 | 5.56° C | 68% | 1017.4 hPa | 0 mm | - | 0 W/m² | - |
| 1777524733 | 5.56° C | 67% | 1017.3 hPa | 0 mm | - | 0 W/m² | - |
| 1777523829 | 6.11° C | 64% | 1017.3 hPa | 0 mm | - | 0 W/m² | - |
* Rain latest hour (hover to see other rain measurements)
** Current wind speed in m/s (hover to see current wind gust speed)